TimeEDT,TemperatureF,Dew PointF,Humidity,Sea Level PressureIn,VisibilityMPH,Wind Direction,Wind SpeedMPH,Gust SpeedMPH,PrecipitationIn,Events,Conditions,WindDirDegrees,DateUTC
12:53 AM,55.0,53.1,93,30.16,10.0,SW,3.5,-,N/A,,Clear,230,2012-10-04 04:53:00
1:53 AM,54.0,52.0,93,30.16,10.0,Calm,Calm,-,N/A,,Clear,0,2012-10-04 05:53:00
2:53 AM,53.1,51.1,93,30.17,10.0,Calm,Calm,-,0.01,,Clear,0,2012-10-04 06:53:00
3:53 AM,52.0,50.0,93,30.16,10.0,Calm,Calm,-,N/A,,Clear,0,2012-10-04 07:53:00
4:53 AM,53.1,51.1,93,30.17,10.0,Calm,Calm,-,N/A,,Clear,0,2012-10-04 08:53:00
5:53 AM,53.1,52.0,96,30.19,10.0,SW,4.6,-,N/A,,Clear,220,2012-10-04 09:53:00
6:53 AM,51.1,50.0,96,30.21,8.0,Calm,Calm,-,N/A,,Clear,0,2012-10-04 10:53:00
7:53 AM,53.1,52.0,96,30.22,8.0,SSW,4.6,-,N/A,,Clear,200,2012-10-04 11:53:00
8:53 AM,57.0,55.0,93,30.23,10.0,South,6.9,-,N/A,,Clear,190,2012-10-04 12:53:00
9:53 AM,62.1,57.0,84,30.24,10.0,South,8.1,-,N/A,,Clear,190,2012-10-04 13:53:00
10:53 AM,66.9,57.9,73,30.24,10.0,SW,10.4,-,N/A,,Clear,230,2012-10-04 14:53:00
11:53 AM,70.0,59.0,68,30.24,10.0,SSW,8.1,-,N/A,,Clear,200,2012-10-04 15:53:00
12:53 PM,73.0,57.9,59,30.24,10.0,WSW,8.1,17.3,N/A,,Clear,250,2012-10-04 16:53:00
1:53 PM,75.0,57.0,53,30.22,10.0,SW,10.4,-,N/A,,Partly Cloudy,230,2012-10-04 17:53:00
2:53 PM,75.0,57.0,53,30.19,10.0,SSW,11.5,16.1,N/A,,Clear,200,2012-10-04 18:53:00
3:53 PM,75.9,55.9,50,30.18,10.0,SW,10.4,-,N/A,,Partly Cloudy,230,2012-10-04 19:53:00
4:53 PM,75.9,55.9,50,30.17,10.0,SSW,12.7,17.3,N/A,,Partly Cloudy,200,2012-10-04 20:53:00
5:53 PM,73.9,55.9,53,30.17,10.0,SW,9.2,-,N/A,,Clear,230,2012-10-04 21:53:00
6:53 PM,71.1,55.9,59,30.17,10.0,SSW,4.6,-,N/A,,Clear,200,2012-10-04 22:53:00
7:53 PM,64.0,55.9,75,30.17,10.0,SSW,4.6,-,N/A,,Clear,200,2012-10-04 23:53:00
8:53 PM,60.1,55.9,86,30.17,10.0,SW,3.5,-,N/A,,Clear,220,2012-10-05 00:53:00
9:53 PM,61.0,55.0,81,30.18,10.0,Calm,Calm,-,N/A,,Clear,0,2012-10-05 01:53:00
10:53 PM,57.9,55.0,90,30.18,10.0,WSW,3.5,-,N/A,,Clear,240,2012-10-05 02:53:00
11:53 PM,59.0,55.0,87,30.17,10.0,SSW,3.5,-,N/A,,Clear,210,2012-10-05 03:53:00